Regional Weather Roundup
Issued by NWS

Home | Current Version | Previous Version | Text Only | Print | Product List | Glossary On
Versions: 1 2 3 4 5 6 7 8 9 10 11 12 13 14 15 16 17 18 19 20 21 22 23 24 25 26 27 28 29 30 31 32 33 34 35 36 37 38 39 40 41 42 43 44 45 46 47 48 49 50
000
ASUS46 KLOX 010812
RWRCA

SOUTHERN CALIFORNIA WEATHER ROUNDUP
NATIONAL WEATHER SERVICE OXNARD CALIFORNIA
100 AM PDT MON SEP 01 2014

NOTE: "FAIR" INDICATES FEW OR NO CLOUDS BELOW 12,000 FEET WITH NO
SIGNIFICANT WEATHER AND/OR OBSTRUCTIONS TO VISIBILITY.

  -  STATIONS PRECEEDED BY AN ASTERISK (*) ARE NOT NWS OR FAA
     STATIONS AND ARE NOT SUBJECT TO NWS AND FAA QUALITY CONTROL.

CAZ041-042-087-010900-
LA AND ORANGE COUNTY COASTAL AREAS


CITY           SKY/WX    TMP DP  RH WIND       PRES   REMARKS
L.A. DOWNTOWN  MOCLDY    72  65  78 SE5       29.81S
L.A. AIRPORT   MOCLDY    71  65  81 E12       29.81S
LONG BEACH     CLOUDY    72  65  78 SE7       29.81F

CITY           SKY/WX    TMP DP  RH WIND       PRES   REMARKS
AVALON           N/A     68 N/A N/A MISG        N/A
FULLERTON      PTCLDY    72  65  78 SE3       29.81S
HAWTHORNE      MOCLDY    72  66  81 SE7       29.81S
*LEO CARRILLO    N/A     65  61  87 N6          N/A
*LOS ALAMITOS  FAIR      72  65  80 SE6       29.81F
*REDONDO BEACH   N/A     70  65  85 SE6       29.80S
SANTA ANA      CLOUDY    74  64  71 SE7       29.81F
STA MONICA APT MOCLDY    72  65  78 E3        29.81F
*UCLA            N/A     70  64  83 E3        29.80S

$$

CAZ547-548-048-010900-
LA COUNTY VALLEYS AND INLAND EMPIRE


CITY           SKY/WX    TMP DP  RH WIND       PRES   REMARKS
BURBANK        PTCLDY    70  64  83 SE6       29.83S
VAN NUYS       MOCLDY    71  65  81 VRB3      29.83R

CITY           SKY/WX    TMP DP  RH WIND       PRES   REMARKS
CORONA AIRPORT SUNNY     68  65  90 W3        29.83F
*CHATSWORTH      N/A     70  66  86 CALM      29.78S
CHINO          CLEAR     68  65  90 W3        29.84S
*CLAREMONT       N/A     65  51  61 N2          N/A
MARCH AFB      CLEAR     68  57  69 SE3       29.86S HAZE
ONTARIO        CLEAR     72  64  76 SW3       29.83S
*PASADENA        N/A     70  66  88 CALM        N/A
RIVERSIDE      CLEAR     70  64  81 W3        29.84S
SAN BERNARDINO NOT AVBL
*SAN RAFAEL HI   N/A     66  66 100 SW5         N/A
*SAUGUS          N/A     69  62  77 SW2         N/A
*WHITEMAN AP   NOT AVBL
*WOODLAND HILL   N/A     70  63  78 NE2         N/A

$$

CAZ054-055-010900-
LA AND SAN BERNARDINO COUNTY MOUNTAINS


CITY           SKY/WX    TMP DP  RH WIND       PRES   REMARKS
*ACTON           N/A     63  53  69 CALM        N/A
*BIG BEAR AIRP SUNNY     48  32  53 CALM      30.18S
*BIG PINES       N/A     65  19  17 CALM        N/A
*CHILAO          N/A     65  46  50 E7          N/A
MT WILSON NWS    N/A     63  43  48 MISG        N/A
SANDBERG       CLEAR     71  28  20 NW12G17   30.02S
*WARM SPRINGS    N/A     71  30  22 W17G32      N/A

$$

CAZ028-029-059-060-099-010900-
ANTELOPE VALLEY AND SURROUNDING AREAS


CITY           SKY/WX    TMP DP  RH WIND       PRES   REMARKS
LANCASTER      CLEAR     77  28  16 W17       29.85S
PALMDALE       CLEAR     72  42  34 SW10      29.88R
*POPPY PARK      N/A     76  28  17 W18G30      N/A

CITY           SKY/WX    TMP DP  RH WIND       PRES   REMARKS
29 PALMS       CLEAR     83  39  21 W12       29.86F
BARSTOW/DAGGET CLEAR     80  37  21 W9        29.82R
BISHOP         CLEAR     65  30  27 NW8       29.94S
CHINA LAKE     CLEAR     73  31  21 CALM      29.79R
EDWARDS AFB    CLEAR     74  25  16 SW9       29.82S
MOJAVE         FAIR      77  27  15 W22G32    29.85S
NEEDLES        PTCLDY    92  39  15 SW7       29.70S
VICTORVILLE    CLEAR     72  48  43 S7        29.90S

$$

CAZ039-040-010900-
VENTURA AND SANTA BARBARA COUNTY COAST


CITY           SKY/WX    TMP DP  RH WIND       PRES   REMARKS
CAMARILLO      CLEAR     70  60  70 CALM      29.80S
NWS OXNARD       N/A     66  60  80 CALM      29.80S
OXNARD AIRPORT CLEAR     66  61  84 CALM      29.80S
*POINT MUGU    PTCLDY    68  61  78 N6        29.81R
SBA APT/GOLETA CLEAR     69  62  78 NE5       29.80R
*VENTURA         N/A     68  62  82 CALM      29.84S

$$

CAZ044-045-010900-
VENTURA COUNTY VALLEYS


CITY           SKY/WX    TMP DP  RH WIND       PRES   REMARKS
*SIMI VALLEY     N/A     67  62  84 CALM      29.75S
*OJAI            N/A     62  58  86 CALM      29.75S
*FILLMORE        N/A     65  60  83 CALM      29.71S

$$

CAZ053-010900-
VENTURA COUNTY MOUNTAINS


CITY           SKY/WX    TMP DP  RH WIND       PRES   REMARKS
*LOCKWOOD VLY    N/A     48  19  32 MISG        N/A
*ROSE VALLEY     N/A     52  27  37 MISG        N/A

$$

CAZ034-035-036-010900-
CENTRAL COAST AND SANTA YNEZ VALLEY


CITY           SKY/WX    TMP DP  RH WIND       PRES   REMARKS
SAN LUIS OBISP CLEAR     58  54  86 CALM      29.85S
SANTA MARIA    CLOUDY    60  57  89 S6        29.86S FOG

CITY           SKY/WX    TMP DP  RH WIND       PRES   REMARKS
*CAL POLY SLO    N/A     57  55  94 CALM        N/A
*LOMPOC        CLOUDY    61  55  82 NW5       29.86S
*PISMO BEACH     N/A     59  55  88 CALM      29.85S
*SANTA YNEZ    FAIR      55  54  94 CALM      29.86F

$$

CAZ037-038-051-010900-
SAN LUIS OBISPO COUNTY INTERIOR AND CUYAMA VALLEY


CITY           SKY/WX    TMP DP  RH WIND       PRES   REMARKS
*CUYAMA          N/A     69  34  27 S1        29.78S
PASO ROBLES    CLEAR     64  50  60 NW6       29.87R

$$

CAZ032-033-061-010900-
SOUTHERN DESERTS


CITY           SKY/WX    TMP DP  RH WIND       PRES   REMARKS
BLYTHE         CLEAR     90  47  22 S8        29.70R
IMPERIAL       CLEAR     83  44  25 W8        29.66S
PALM SPRINGS   CLEAR     89  46  22 SE6       29.70R
THERMAL        CLEAR     91  44  19 W9        29.63R

$$

ELSEWHERE ACROSS THE WESTERN UNITED STATES AND MEXICO


CITY           SKY/WX    TMP DP  RH WIND       PRES   REMARKS
DENVER, CO     PTCLDY    52  46  80 E8        30.05R
GRAND CANYON,    N/A    N/A N/A N/A MISG        N/A
HONOLULU, HI   PTCLDY    81  70  69 VRB3      30.03R
KAHULUI, MAUI  CLEAR     79  72  78 CALM      30.03R
LAKE TAHOE, CA CLEAR     50  35  56 S3        30.16S
LAS VEGAS, NV  CLEAR     88  28  11 S14       29.73S
MAMMOTH LAKES, FAIR      52  27  37 N5        30.19S
MEXICO CITY, M MOCLDY    61  52  72 N3        30.30F
PHOENIX, AZ    CLEAR     91  46  21 E5        29.77R
PORTLAND, OR   PTCLDY    63  54  72 W5        30.08R
RENO, NV       CLEAR     69  38  32 N6        30.06R
SALT LAKE CITY CLEAR     58  39  49 SE7       30.00R
SAN DIEGO, CA  MOCLDY    69  64  84 S9        29.84S
SAN FRANCISCO, CLEAR     62  57  83 W7        29.85S
SAN JOSE, CA   CLEAR     64  56  75 CALM      29.85F
SEATTLE, WA    MOCLDY    59  54  83 S3        30.08R
TIJUANA, MEX   CLEAR     66  61  82 CALM      29.86S

$$

STATION/POSITION TIME  TEMP    WIND        PRES    VSBY  WAVE
                       AIR SEA DIR/SP/G                  HT/PER
                 (UTC) (F)     (DEG/KT/KT) (MB)    (MI)  (FT/S)
POINT ARGUELLO B NOT AVBL
WEST SANTA BARBA 0800   62 62  320/ 19/ 23 1009.1R         7/ 7
POINT CONCEPTION NOT AVBL
EAST SANTA BARBA NOT AVBL
SANTA MONICA BAY 0800   71 71   90/ 10/ 14 1008.6S         4/15



USA.gov is the U.S. government's official web portal to all federal, state and local government web resources and services.